Location: Blairvadach
(56.2780°N, 6.9720°W)
Time: 02:02:24
(UTC+01:00)

Envisat - Pass Details

Date: 21 February 2019
Orbit: 764 x 766 km, 98.1° (Epoch: 22 October)

Event Time Altitude Azimuth Distance (km) Brightness Sun altitude
Rises 18:16:15 0° 148° (SSE) 3,225 6.0 -5.2°
Reaches altitude 10° 18:18:34 10° 144° (SE) 2,302 5.2 -5.5°
Maximum altitude 18:23:32 57° 67° (ENE) 900 3.1 -6.2°
Drops below altitude 10° 18:28:32 10° 350° (N) 2,317 5.5 -6.9°
Sets 18:30:52 0° 346° (NNW) 3,247 6.3 -7.2°
